Temperature
17 17 16 16 16 16 16 16 15 15 15 15 14 14 14 14 14 14 14 14 14 14 14 13 13 13 13 13 13 13 13 13 13 13 13 12 12 12 12 12 12 12 12
17 17 16 16 16 16 16 15 15 15 15 15 14 14 14 14 14 13 13 13 13 13 13 13 13 13 13 13 13 13 12 12 13 13 13 13 13 12 12 12 12 12 12
18 17 17 16 16 16 16 15 15 15 15 15 14 14 14 13 13 13 13 13 13 13 13 13 12 12 12 12 12 12 12 12 12 12 12 13 13 12 12 11 11 11 11
17 17 16 16 16 16 15 15 15 15 15 15 14 14 14 13 13 13 13 13 13 13 13 12 12 12 12 12 12 12 12 12 11 11 11 12 11 12 11 11 11 11 11
17 16 16 16 16 15 15 15 15 15 15 14 14 14 13 13 13 13 13 13 13 13 12 12 12 12 12 12 12 12 11 11 11 11 11 11 11 11 11 11 11 11 11
16 16 16 15 15 15 15 15 15 15 15 14 14 13 13 13 13 13 13 12 12 12 12 12 12 12 12 11 11 11 11 11 11 11 11 11 11 11 11 11 10 10 10
16 16 15 15 15 15 15 15 15 15 14 14 14 13 13 13 13 13 12 12 12 12 12 12 12 11 11 11 11 11 11 11 11 11 10 10 10 10 10 10 10 10 10
16 15 15 15 15 15 15 15 15 14 14 14 13 13 13 13 13 12 12 12 12 12 12 11 11 11 11 11 11 11 11 10 10 10 10 10 10 10 10 10 10 10 10
15 15 15 15 15 15 15 14 14 14 14 13 13 13 13 13 13 12 12 12 12 12 11 11 11 11 11 11 11 10 10 10 10 10 10 10 10 10 10 9 9 9 10
15 14 15 15 15 15 14 14 14 14 13 13 13 13 13 12 12 12 12 12 12 11 11 11 11 11 11 11 10 10 10 10 10 10 10 9 9 9 9 9 9 9 9
14 14 14 14 14 14 14 14 14 13 13 13 13 12 12 12 12 12 12 11 11 11 11 11 11 11 10 10 10 10 9 9 9 9 9 9 9 9 9 9 9 9 9
14 14 13 14 14 14 14 13 13 13 13 13 12 12 12 12 12 12 11 11 11 11 11 11 10 10 10 10 10 9 9 9 9 9 9 9 9 9 9 9 9 9 9
13 13 13 13 13 13 13 13 13 13 13 12 12 12 11 11 11 11 11 11 11 11 10 10 10 10 10 9 9 9 9 9 9 9 9 9 8 8 8 8 8 8 8
13 13 12 12 12 12 12 13 13 13 12 12 11 11 11 11 11 11 11 10 10 10 10 10 10 10 9 9 9 9 9 9 9 9 8 8 8 8 8 8 8 8 8
12 12 12 12 12 12 12 12 12 12 12 11 11 11 11 11 11 10 10 10 10 10 10 9 9 9 9 9 9 9 8 8 8 8 8 8 8 8 8 8 8 8 8
12 12 12 12 12 12 12 12 12 12 11 11 11 11 11 10 10 10 10 10 9 9 9 9 9 9 9 9 9 9 8 8 8 8 8 8 8 8 8 8 8 7 7
12 12 11 11 11 11 11 11 11 11 11 11 10 10 10 10 10 10 9 9 9 9 9 9 9 9 9 9 9 8 8 8 8 8 7 7 7 7 7 7 7 7 7
12 11 11 11 11 11 11 11 10 10 10 10 10 10 10 10 10 9 9 9 9 9 9 9 8 8 8 8 8 8 8 7 7 7 7 7 7 7 7 7 7 7 7
11 11 11 11 11 11 10 10 10 10 10 10 10 10 10 9 9 9 9 9 8 8 8 8 8 8 8 8 8 8 7 7 7 7 7 7 7 7 7 7 7 7 7
11 11 11 10 10 10 10 10 10 10 10 10 9 9 9 9 9 9 8 8 8 8 8 8 8 8 8 8 8 7 7 7 7 7 7 7 7 7 7 6 6 6 6
11 11 10 10 10 10 10 10 9 9 9 9 9 8 8 8 8 8 8 8 8 8 8 8 8 7 7 7 7 7 7 6 6 6 6 6 6 6 6 6 6 6 6
10 10 10 10 10 9 9 9 9 9 9 8 8 8 8 8 8 8 8 8 8 7 7 7 7 7 7 7 7 7 7 6 6 6 6 6 6 6 6 6 6 6 6
10 10 10 9 9 9 9 9 9 8 8 8 8 8 7 7 7 7 7 7 7 7 7 7 7 7 6 6 6 6 6 6 6 5 6 6 6 6 6 6 6 5 5
10 9 9 9 9 9 9 8 8 8 8 8 7 7 7 7 7 6 7 7 7 7 6 6 6 6 6 6 6 6 5 5 5 5 5 5 5 5 5 5 5 5 5
9 9 9 9 8 8 8 8 8 8 7 7 7 7 6 6 6 6 6 6 6 6 6 6 6 6 6 6 6 5 5 5 5 5 5 5 5 5 5 5 5 5 5
9 9 8 8 8 8 8 8 8 7 7 7 6 6 6 6 6 6 6 6 6 6 6 6 6 5 5 5 5 5 5 5 5 4 4 4 4 4 4 4 4 4 4
Wind_Speed
6 5 5 5 5 5 4 4 4 3 2 2 2 1 2 1 2 3 3 3 3 4 4 3 3 3 3 4 4 3 3 3 2 1 1 2 2 3 3 3 3 3 4
6 6 6 6 6 6 5 5 4 4 3 2 2 1 1 1 2 2 2 3 3 3 3 2 2 3 3 3 4 3 2 2 2 2 1 0 1 2 3 2 2 3 3
6 7 7 7 6 6 6 5 5 5 4 4 2 2 2 1 1 1 1 2 2 2 2 2 2 2 2 2 2 2 3 2 2 3 2 2 1 1 1 2 3 3 3
6 6 6 7 7 7 7 6 6 5 5 5 4 4 3 2 1 0 1 1 1 2 2 2 2 1 2 2 2 2 2 2 2 2 2 2 2 2 1 1 2 3 3
6 6 6 6 6 6 6 6 6 5 5 5 5 4 3 2 1 1 1 0 1 1 2 2 1 2 1 1 2 1 2 1 2 2 2 2 1 2 2 2 2 2 2
4 5 5 5 5 5 6 6 6 6 5 6 6 5 4 3 2 2 1 0 0 1 1 2 1 2 2 2 2 2 1 1 1 2 1 2 2 2 2 3 3 3 2
3 4 4 5 5 5 6 6 7 7 6 6 6 6 5 4 4 3 2 1 1 1 1 1 2 2 2 2 2 2 2 2 2 2 2 2 2 2 2 3 3 3 3
3 3 4 4 5 5 6 6 7 7 7 6 6 5 5 3 2 3 2 1 1 1 1 1 2 2 2 2 1 2 2 2 2 2 2 2 2 2 2 2 2 3 3
2 2 3 3 4 5 6 6 7 6 6 6 6 5 5 4 3 3 2 2 1 1 1 1 1 1 1 1 2 2 2 2 2 3 3 2 2 2 2 2 3 3 3
2 2 2 2 2 3 4 5 6 6 6 6 5 4 5 4 4 3 3 2 2 1 1 1 1 1 1 1 2 2 2 2 2 2 3 3 2 2 2 2 3 3 4
2 2 1 1 1 2 2 3 5 5 6 6 6 5 5 4 4 3 3 2 2 2 1 1 1 2 2 2 2 2 2 2 2 2 3 3 2 2 2 2 3 3 3
2 1 1 1 1 2 2 2 3 4 5 5 6 5 5 4 4 3 3 2 2 1 1 1 1 1 2 2 2 2 2 2 2 2 3 3 2 2 2 2 2 2 3
1 1 1 1 1 1 1 1 2 3 4 5 5 5 5 4 4 4 3 2 2 2 1 1 1 1 2 2 2 2 2 3 3 2 2 3 2 3 2 2 2 2 2
1 1 2 2 2 2 2 2 2 3 4 5 5 5 5 4 4 3 3 3 2 2 2 1 1 1 1 2 2 2 3 3 2 2 2 2 2 3 3 2 2 2 2
3 3 3 2 1 2 2 2 2 2 3 4 4 4 4 3 3 3 3 2 2 2 2 1 1 1 1 2 2 2 3 3 2 2 2 2 3 4 4 3 3 2 2
4 3 3 2 2 2 2 2 2 3 3 4 3 3 3 3 3 3 3 2 2 2 1 1 1 1 1 2 2 3 2 2 2 2 2 2 2 2 2 3 4 4 3
4 3 3 3 2 2 2 3 3 3 3 3 3 3 3 3 3 3 3 3 3 2 2 2 1 2 1 1 1 3 3 2 2 2 2 2 2 2 2 2 3 3 3
4 3 3 3 3 2 2 3 3 3 3 2 2 2 3 3 3 3 3 3 3 3 2 2 2 1 1 0 1 3 3 3 2 2 2 2 2 2 3 3 2 2 2
3 3 3 3 3 3 3 3 3 3 3 3 2 2 3 3 3 3 3 3 3 3 3 3 2 2 2 0 2 4 3 2 2 2 2 2 2 4 4 2 2 2 2
2 2 2 2 3 2 3 4 4 4 3 3 2 2 2 3 3 3 3 3 3 3 3 2 3 3 2 1 2 4 3 2 2 1 1 2 3 4 3 2 2 2 2
2 2 2 2 2 3 4 4 4 4 3 3 2 2 2 2 2 3 3 3 3 3 3 2 2 2 2 1 1 3 2 2 2 2 2 1 3 3 3 3 2 3 3
2 2 2 2 2 3 4 4 4 3 3 3 2 2 2 2 2 2 2 2 2 2 2 2 2 2 2 2 1 2 3 4 3 3 2 1 1 2 3 2 2 3 3
2 2 2 2 2 3 3 4 3 3 3 3 3 3 2 2 2 2 2 2 2 2 2 2 2 2 2 1 1 2 2 4 3 3 2 2 1 2 2 1 2 2 2
3 3 2 2 2 2 3 3 3 3 4 4 4 3 3 2 2 2 2 2 2 2 2 2 2 2 2 2 1 1 2 2 3 2 1 2 2 2 2 1 1 1 2
3 3 3 3 2 2 3 3 3 4 4 4 3 3 3 2 2 2 1 2 2 2 3 3 3 3 3 2 3 3 2 2 2 2 2 2 1 1 1 2 2 2 2
3 3 3 2 2 2 3 3 4 5 4 4 3 3 2 2 2 2 1 2 1 1 2 3 3 3 3 2 2 2 2 1 2 2 3 2 2 3 2 2 2 2 2
Wind_Direction
200 191 191 188 183 177 170 165 162 160 149 141 141 129 111 91 78 64 60 58 56 53 55 50 50 41 45 39 38 38 46 40 13 4 80 99 82 57 47 34 32 40 39
202 192 194 193 194 185 180 181 180 174 165 160 163 146 127 103 91 71 61 59 54 52 47 41 46 44 40 41 37 32 22 40 20 341 316 359 129 65 45 37 30 33 38
212 203 200 198 195 195 192 189 188 181 173 164 156 140 131 126 112 92 67 38 38 43 35 29 36 35 31 33 25 19 11 5 19 10 347 328 343 360 56 35 28 25 24
220 214 207 205 202 202 198 195 186 184 176 169 170 168 163 149 141 127 118 67 47 40 28 22 13 22 20 17 3 7 347 338 348 8 2 352 349 312 322 37 23 11 9
217 213 209 209 208 201 195 196 186 183 180 176 179 188 183 168 143 135 108 62 46 30 23 19 3 352 350 344 349 352 337 330 324 334 337 339 323 308 301 310 336 344 350
204 209 206 201 203 196 191 189 185 184 187 187 187 191 190 177 165 163 175 235 330 348 357 354 348 339 336 336 333 323 305 292 296 300 309 318 313 316 308 301 316 327 333
196 192 194 197 195 193 195 192 191 191 191 196 197 196 198 194 190 189 198 225 260 288 321 338 332 334 335 337 322 310 289 272 272 284 297 306 306 309 303 297 311 317 315
205 200 202 205 202 199 199 199 198 198 196 202 204 201 199 202 203 202 201 214 251 291 332 337 342 348 348 349 330 291 284 278 267 279 286 288 299 302 293 294 304 306 308
209 208 209 210 207 205 205 204 202 202 201 206 204 201 200 204 206 209 209 216 232 253 282 292 317 333 334 336 325 302 287 286 288 287 290 284 284 284 290 279 274 284 295
204 206 204 206 210 211 215 210 209 205 202 204 206 202 204 204 201 203 211 219 230 233 234 255 272 291 295 292 299 292 307 297 299 300 301 305 301 304 292 281 280 277 279
210 209 200 200 196 194 204 212 213 206 199 200 201 201 197 198 196 196 199 209 216 222 226 250 281 286 285 277 264 280 296 298 311 317 317 312 314 303 295 288 281 275 272
210 211 206 192 180 194 203 213 214 204 199 200 198 197 189 187 191 192 191 197 210 215 222 232 257 276 279 277 269 271 283 297 306 314 314 314 312 295 298 293 286 283 274
217 227 234 223 211 202 215 215 210 196 188 191 192 191 190 191 195 195 189 196 205 208 222 234 253 273 278 272 275 278 291 299 303 307 302 304 304 297 297 287 285 284 283
233 228 234 236 231 220 209 198 192 181 176 181 186 190 193 193 194 194 195 199 205 209 221 237 258 275 277 270 277 284 293 297 297 294 296 295 291 296 304 294 290 285 280
252 243 240 239 227 200 185 176 180 171 172 177 186 192 195 191 186 187 194 193 199 213 219 228 248 269 287 303 295 291 286 289 289 293 303 318 330 340 328 309 303 297 284
254 253 252 244 230 212 193 182 185 177 176 180 188 191 192 191 189 190 191 188 195 210 213 228 242 264 281 356 329 303 287 285 286 292 298 303 298 325 317 323 317 307 292
255 247 247 243 241 238 222 203 192 175 177 182 182 185 187 193 197 194 192 196 204 213 224 234 241 258 278 50 333 311 293 287 293 291 297 296 289 286 293 281 271 288 294
248 245 241 238 243 239 225 208 188 176 178 178 181 189 189 194 199 197 199 210 212 215 225 228 225 246 276 70 283 297 275 281 288 287 281 293 296 303 308 298 298 305 305
248 245 236 231 230 226 214 196 187 183 179 177 186 199 201 196 198 201 209 216 216 218 225 228 232 240 246 216 276 284 274 279 294 304 316 309 304 333 317 292 282 278 286
247 239 231 221 220 215 206 202 198 194 192 190 198 203 204 204 203 210 218 218 216 222 225 231 237 240 252 235 260 277 259 266 281 291 307 356 336 337 323 271 274 281 295
238 229 221 221 222 206 203 208 205 207 200 192 189 194 201 209 208 212 215 211 210 215 224 230 240 244 258 242 252 284 265 264 273 277 285 316 354 346 332 306 300 320 307
223 216 220 226 219 205 205 209 212 206 187 183 186 196 203 205 210 205 202 205 201 208 227 237 248 255 253 259 251 281 295 303 270 275 276 295 335 328 319 307 352 340 307
223 231 227 222 218 213 210 210 208 191 184 186 190 195 196 202 213 207 196 195 202 217 234 239 251 262 264 247 214 237 272 294 279 281 316 310 275 267 272 329 325 287 281
229 224 219 215 227 228 217 213 187 184 191 193 193 193 191 197 212 216 205 204 207 216 231 240 251 260 262 263 257 243 241 253 267 270 254 233 238 247 284 272 255 269 288
225 222 221 222 225 227 216 197 183 187 193 193 192 194 192 199 205 209 235 233 230 242 245 250 255 259 262 278 304 281 263 273 276 270 253 257 249 255 266 269 270 264 264
215 219 228 230 223 219 215 193 189 190 189 188 189 190 194 201 206 205 214 23 307 333 285 289 284 288 309 310 265 281 302 310 283 253 246 248 245 250 258 265 268 263 262
Height
1535 1536 1537 1538 1539 1540 1541 1541 1542 1542 1542 1542 1542 1542 1542 1542 1542 1542 1541 1541 1540 1539 1539 1538 1537 1536 1536 1535 1534 1533 1533 1532 1531 1531 1531 1530 1529 1529 1528 1527 1526 1525 1524
1533 1534 1535 1536 1538 1539 1539 1541 1541 1541 1541 1542 1542 1542 1542 1542 1542 1541 1541 1541 1540 1539 1539 1538 1537 1536 1536 1535 1534 1533 1533 1532 1531 1531 1531 1531 1531 1529 1528 1527 1526 1525 1524
1530 1532 1533 1534 1536 1537 1538 1539 1540 1540 1541 1541 1541 1542 1542 1542 1542 1541 1541 1540 1540 1539 1538 1538 1537 1536 1535 1535 1534 1533 1533 1532 1532 1531 1531 1531 1530 1529 1529 1527 1526 1525 1524
1528 1529 1531 1532 1533 1535 1536 1537 1538 1539 1539 1540 1540 1540 1541 1541 1541 1541 1540 1540 1540 1539 1538 1537 1537 1536 1535 1534 1534 1533 1533 1532 1531 1531 1530 1531 1529 1529 1528 1528 1526 1524 1523
1526 1527 1528 1530 1531 1533 1534 1535 1536 1537 1537 1538 1538 1539 1540 1540 1540 1540 1540 1540 1539 1538 1538 1537 1536 1535 1535 1534 1533 1532 1532 1531 1531 1530 1530 1529 1528 1528 1528 1527 1526 1524 1523
1524 1525 1526 1528 1529 1530 1531 1533 1534 1534 1535 1536 1536 1537 1538 1538 1539 1539 1539 1539 1538 1538 1537 1536 1535 1535 1534 1533 1532 1531 1531 1530 1530 1529 1529 1528 1528 1527 1527 1526 1524 1523 1522
1523 1523 1524 1525 1526 1528 1529 1530 1531 1532 1533 1534 1535 1535 1536 1537 1537 1538 1537 1537 1537 1536 1536 1535 1534 1534 1533 1532 1531 1530 1530 1529 1528 1528 1528 1527 1527 1526 1526 1525 1523 1522 1521
1521 1522 1522 1523 1524 1525 1526 1528 1529 1530 1531 1532 1533 1534 1534 1535 1536 1536 1536 1536 1535 1535 1535 1534 1533 1532 1531 1530 1530 1529 1528 1528 1527 1527 1526 1525 1525 1524 1524 1523 1522 1521 1521
1520 1520 1521 1521 1522 1523 1524 1525 1527 1528 1528 1530 1531 1532 1533 1533 1533 1534 1534 1534 1534 1533 1533 1532 1532 1531 1530 1529 1528 1527 1527 1526 1526 1525 1525 1524 1523 1522 1522 1521 1521 1521 1519
1518 1518 1519 1519 1520 1521 1522 1523 1524 1525 1526 1527 1529 1529 1530 1531 1531 1532 1532 1532 1532 1532 1531 1531 1530 1529 1528 1527 1526 1526 1525 1525 1524 1523 1523 1522 1522 1521 1520 1519 1519 1518 1518
1517 1517 1517 1518 1518 1519 1520 1520 1521 1522 1523 1525 1526 1527 1528 1529 1529 1530 1530 1530 1530 1530 1529 1529 1528 1527 1526 1526 1525 1524 1524 1523 1522 1522 1521 1520 1519 1519 1518 1517 1517 1516 1515
1516 1516 1516 1516 1516 1517 1517 1518 1519 1520 1520 1522 1523 1524 1525 1526 1527 1527 1527 1528 1528 1528 1527 1527 1526 1525 1525 1524 1523 1523 1522 1521 1520 1520 1519 1518 1517 1517 1516 1515 1515 1514 1514
1514 1514 1514 1514 1514 1514 1515 1515 1516 1517 1518 1519 1520 1522 1522 1523 1524 1525 1525 1525 1525 1525 1525 1525 1524 1523 1523 1522 1521 1521 1520 1520 1519 1518 1517 1516 1516 1515 1514 1514 1513 1512 1512
1513 1512 1512 1512 1512 1512 1513 1513 1514 1514 1515 1516 1518 1519 1520 1520 1521 1522 1522 1523 1523 1523 1522 1522 1522 1521 1521 1520 1520 1519 1518 1518 1517 1516 1515 1514 1514 1513 1512 1512 1511 1511 1510
1511 1510 1510 1510 1510 1510 1510 1511 1511 1512 1513 1514 1515 1516 1517 1518 1518 1519 1519 1520 1520 1520 1520 1520 1519 1519 1518 1518 1517 1517 1516 1515 1514 1514 1513 1512 1511 1510 1510 1509 1509 1509 1508
1509 1508 1508 1508 1508 1508 1509 1509 1509 1510 1511 1512 1512 1513 1514 1515 1515 1516 1516 1517 1517 1517 1517 1517 1517 1517 1516 1515 1515 1514 1514 1513 1512 1511 1510 1509 1508 1508 1507 1507 1506 1506 1506
1507 1506 1506 1506 1506 1506 1506 1507 1507 1508 1509 1509 1510 1511 1511 1512 1513 1513 1514 1514 1514 1515 1514 1515 1515 1514 1514 1513 1512 1512 1511 1511 1510 1509 1508 1507 1506 1505 1505 1504 1504 1503 1503
1504 1504 1504 1504 1504 1504 1505 1505 1505 1506 1506 1507 1508 1508 1508 1509 1510 1510 1511 1511 1512 1512 1512 1512 1512 1511 1511 1510 1510 1509 1509 1508 1507 1506 1505 1504 1503 1502 1502 1502 1501 1501 1501
1501 1502 1502 1502 1502 1502 1502 1503 1503 1503 1504 1504 1505 1505 1506 1506 1507 1507 1507 1508 1509 1509 1509 1509 1509 1509 1508 1508 1507 1507 1506 1505 1504 1503 1502 1502 1501 1500 1499 1499 1499 1499 1499
1499 1499 1498 1499 1499 1499 1500 1500 1501 1501 1501 1501 1502 1503 1503 1504 1504 1504 1505 1505 1506 1506 1507 1506 1506 1506 1506 1506 1505 1504 1504 1503 1502 1500 1499 1499 1498 1497 1496 1497 1497 1496 1496
1496 1496 1495 1495 1496 1496 1497 1497 1498 1498 1498 1499 1499 1500 1501 1501 1501 1502 1502 1503 1503 1504 1504 1504 1504 1504 1503 1503 1502 1502 1501 1500 1499 1498 1497 1496 1495 1494 1494 1494 1494 1494 1494
1493 1493 1493 1493 1493 1493 1494 1494 1495 1495 1496 1496 1497 1497 1498 1498 1499 1499 1500 1500 1501 1502 1502 1502 1501 1501 1501 1500 1499 1499 1498 1498 1497 1496 1495 1494 1493 1493 1492 1492 1492 1492 1492
1491 1491 1490 1490 1490 1491 1491 1491 1492 1492 1493 1494 1494 1495 1495 1496 1496 1497 1497 1498 1499 1499 1499 1499 1499 1498 1498 1497 1496 1496 1495 1495 1494 1494 1493 1492 1491 1491 1491 1490 1490 1490 1490
1489 1488 1488 1488 1488 1488 1488 1489 1489 1489 1490 1491 1492 1492 1493 1493 1494 1495 1495 1496 1496 1496 1497 1496 1496 1495 1495 1494 1494 1493 1493 1492 1491 1491 1490 1489 1489 1489 1489 1488 1488 1488 1488
1486 1486 1486 1486 1486 1485 1485 1486 1486 1487 1488 1489 1489 1490 1490 1491 1492 1492 1493 1493 1494 1494 1494 1494 1493 1493 1492 1492 1491 1491 1490 1489 1489 1488 1488 1487 1487 1487 1487 1486 1486 1486 1486
1484 1484 1484 1484 1483 1484 1483 1483 1484 1485 1485 1486 1487 1487 1488 1488 1489 1490 1490 1490 1491 1491 1491 1490 1490 1490 1490 1489 1488 1488 1487 1487 1486 1486 1485 1485 1485 1484 1484 1484 1484 1484 1483